TimeCDT,TemperatureF,Dew PointF,Humidity,Sea Level PressureIn,VisibilityMPH,Wind Direction,Wind SpeedMPH,Gust SpeedMPH,PrecipitationIn,Events,Conditions,WindDirDegrees,DateUTC
12:53 AM,75.0,61.0,62,29.93,10.0,SSE,11.5,-,N/A,,Clear,150,2013-09-15 05:53:00
1:53 AM,75.0,59.0,57,29.91,10.0,SSE,15.0,-,N/A,,Mostly Cloudy,160,2013-09-15 06:53:00
2:53 AM,75.0,59.0,57,29.92,10.0,South,11.5,-,N/A,,Clear,170,2013-09-15 07:53:00
3:53 AM,75.0,59.0,57,29.91,10.0,South,19.6,-,N/A,,Clear,170,2013-09-15 08:53:00
4:53 AM,73.9,59.0,59,29.91,10.0,South,17.3,-,N/A,,Mostly Cloudy,170,2013-09-15 09:53:00
5:53 AM,73.9,59.0,59,29.91,10.0,South,17.3,-,N/A,,Partly Cloudy,170,2013-09-15 10:53:00
6:53 AM,73.0,60.1,64,29.94,10.0,South,15.0,-,N/A,,Mostly Cloudy,170,2013-09-15 11:53:00
7:53 AM,72.0,60.1,66,29.96,10.0,South,13.8,-,N/A,,Partly Cloudy,180,2013-09-15 12:53:00
8:53 AM,73.0,61.0,66,29.97,10.0,South,11.5,-,N/A,,Scattered Clouds,180,2013-09-15 13:53:00
9:53 AM,78.1,61.0,56,29.97,10.0,South,17.3,-,N/A,,Clear,190,2013-09-15 14:53:00
10:53 AM,80.1,62.1,54,29.99,10.0,SSW,17.3,-,N/A,,Scattered Clouds,200,2013-09-15 15:53:00
11:53 AM,84.0,61.0,46,29.99,10.0,South,15.0,-,N/A,,Mostly Cloudy,190,2013-09-15 16:53:00
12:53 PM,88.0,57.0,35,29.98,10.0,SSW,17.3,-,N/A,,Partly Cloudy,210,2013-09-15 17:53:00
1:53 PM,90.0,55.9,31,29.97,10.0,SW,16.1,-,N/A,,Clear,230,2013-09-15 18:53:00
2:53 PM,89.1,57.0,34,29.96,10.0,SW,13.8,-,N/A,,Clear,230,2013-09-15 19:53:00
3:53 PM,90.0,57.9,34,29.95,10.0,West,12.7,18.4,N/A,,Clear,260,2013-09-15 20:53:00
4:53 PM,90.0,59.0,35,29.93,10.0,WSW,12.7,18.4,N/A,,Clear,240,2013-09-15 21:53:00
5:53 PM,91.9,57.9,32,29.93,10.0,South,9.2,17.3,N/A,,Clear,180,2013-09-15 22:53:00
6:53 PM,89.1,57.9,35,29.94,10.0,South,8.1,-,N/A,,Clear,190,2013-09-15 23:53:00
7:53 PM,84.9,59.0,41,29.95,10.0,SSE,5.8,-,N/A,,Clear,160,2013-09-16 00:53:00
8:53 PM,82.9,60.1,46,29.97,10.0,ESE,5.8,-,N/A,,Clear,120,2013-09-16 01:53:00
9:53 PM,82.9,62.1,49,30.00,10.0,SSE,11.5,-,N/A,,Mostly Cloudy,160,2013-09-16 02:53:00
10:53 PM,79.0,60.1,52,30.01,10.0,South,17.3,-,N/A,,Clear,170,2013-09-16 03:53:00
11:14 PM,78.8,62.6,57,30.08,10.0,South,18.4,-,N/A,Thunderstorm,Thunderstorm,170,2013-09-16 04:14:00
11:53 PM,71.1,63.0,75,30.03,4.0,SSW,23.0,33.4,0.12,Rain-Thunderstorm,Heavy Thunderstorms and Rain,200,2013-09-16 04:53:00